FW9766 Weather Reports


time (UTC)temp
F
wind
direction
speed
knots
gust
knots
rain 1hr
in
rain 24hr
in
rain mn
in
humidity
%
barometer
mb
20260510060050 72 0 0.0 4.3 0.00 0.00 0.00 83 1012.8
20260510054549 72 0 0.0 2.6 0.00 0.00 0.00 83 1012.8
20260510053042 72 0 0.0 3.5 0.00 0.00 0.00 84 1012.7
20260510051541 71 95 0.0 1.7 0.00 0.00 0.00 84 1012.8
20260510050047 71 0 0.0 2.6 0.00 0.00 0.00 84 1012.7
20260510044550 72 0 0.0 0.0 0.00 0.00 0.00 83 1012.5
20260510043054 73 0 0.0 0.0 0.00 0.00 0.00 82 1012.5
20260510041545 74 0 0.0 0.0 0.00 0.00 0.00 80 1012.5
20260510040042 75 0 0.0 0.0 0.00 0.00 0.00 78 1012.5
20260510034549 75 0 0.0 2.6 0.00 0.00 0.00 78 1012.5
20260510033110 76 17 0.0 2.6 0.00 0.00 0.00 77 1012.3
20260510031551 76 40 0.0 5.2 0.00 0.00 0.00 77 1011.9
20260510030045 76 0 0.0 2.6 0.00 0.00 0.00 76 1011.6
20260510024546 77 0 0.0 0.0 0.00 0.00 0.00 73 1011.5
20260510023049 77 0 0.0 2.6 0.00 0.00 0.00 72 1011.3
20260510021547 78 0 0.0 0.0 0.00 0.00 0.00 70 1011.2
20260510020050 79 0 0.0 0.0 0.00 0.00 0.00 67 1010.8
20260510014547 80 0 0.0 0.0 0.00 0.00 0.00 64 1010.6
20260510013049 82 0 0.0 2.6 0.00 0.00 0.00 60 1010.3
20260510011552 83 0 0.0 0.9 0.00 0.00 0.00 56 1010.2
20260510010043 86 0 0.0 0.9 0.00 0.00 0.00 54 1010.1
20260510004552 89 0 0.0 1.7 0.00 0.00 0.00 49 1010.0
20260510003109 90 0 0.0 1.7 0.00 0.00 0.00 50 1009.9
20260510001545 90 0 0.0 2.6 0.00 0.00 0.00 49 1009.9
20260510000047 91 338 0.0 4.3 0.00 0.00 0.00 45 1009.7
20260509234600 91 0 0.0 3.5 0.00 0.00 0.00 47 1009.6
20260509233050 91 146 0.9 4.3 0.00 0.00 0.00 43 1009.4
20260509231553 91 108 0.0 4.3 0.00 0.00 0.00 44 1009.6
20260509230056 92 120 0.9 3.5 0.00 0.00 0.00 45 1009.7
20260509224545 91 0 0.9 2.6 0.00 0.00 0.00 43 1009.8
20260509223048 90 134 0.9 3.5 0.00 0.00 0.00 47 1009.9
20260509221548 88 190 0.0 2.6 0.00 0.00 0.00 48 1009.9
20260509220043 89 140 2.6 7.0 0.00 0.00 0.00 48 1010.0
20260509214543 90 299 1.7 7.0 0.00 0.00 0.00 48 1010.1
20260509213057 90 9 0.9 4.3 0.00 0.00 0.00 48 1010.2
20260509211547 89 192 0.9 8.7 0.00 0.00 0.00 49 1010.3
20260509210050 89 76 1.7 7.8 0.00 0.00 0.00 54 1010.5
20260509204545 89 125 1.7 5.2 0.00 0.00 0.00 55 1010.7
20260509203044 89 50 2.6 7.0 0.00 0.00 0.00 52 1011.1
20260509201542 89 76 1.7 5.2 0.00 0.00 0.00 55 1011.2
20260509200054 87 31 1.7 8.7 0.00 0.00 0.00 55 1011.6
20260509194546 86 173 3.5 7.0 0.00 0.00 0.00 58 1011.7
20260509193049 86 213 2.6 9.6 0.00 0.00 0.00 59 1011.8
20260509191545 86 121 1.7 8.7 0.00 0.00 0.00 60 1012.0
20260509190047 85 99 4.3 8.7 0.00 0.00 0.00 62 1012.1
20260509184548 84 151 3.5 7.0 0.00 0.00 0.00 63 1012.2
20260509183131 84 140 3.5 7.8 0.00 0.00 0.00 65 1012.3
20260509181601 83 171 4.3 7.8 0.00 0.00 0.00 69 1012.7
20260509180044 83 158 1.7 7.8 0.00 0.00 0.00 70 1012.9
20260509174541 82 168 2.6 7.0 0.00 0.00 0.00 71 1012.9
20260509173047 81 131 2.6 7.8 0.00 0.00 0.00 73 1013.1
20260509171548 80 146 5.2 8.7 0.00 0.00 0.00 74 1013.3
20260509170046 80 139 2.6 8.7 0.00 0.00 0.00 76 1013.1
20260509164544 79 112 2.6 8.7 0.00 0.00 0.00 79 1013.4
20260509163041 78 127 1.7 6.1 0.00 0.00 0.00 81 1013.5
20260509161540 76 85 2.6 7.8 0.00 0.00 0.00 85 1013.5
20260509160049 76 101 2.6 7.8 0.00 0.00 0.00 84 1013.6
20260509154552 75 117 2.6 8.7 0.00 0.00 0.00 87 1013.6
20260509153045 73 56 2.6 9.6 0.00 0.00 0.00 92 1013.3
20260509151546 73 83 0.9 5.2 0.00 0.00 0.00 90 1013.3
20260509150113 72 114 2.6 5.2 0.00 0.00 0.00 92 1013.2
20260509144548 71 130 2.6 6.1 0.00 0.00 0.00 95 1013.0
20260509143046 69 151 1.7 6.1 0.00 0.00 0.00 96 1013.0
20260509141545 69 0 0.0 0.0 0.00 0.00 0.00 97 1013.5
20260509140056 68 0 0.9 2.6 0.00 0.00 0.00 97 1013.6
20260509134544 68 0 0.0 1.7 0.00 0.00 0.00 98 1013.6
20260509133042 68 0 0.0 2.6 0.00 0.00 0.00 97 1013.6
20260509131547 68 282 0.9 5.2 0.00 0.00 0.00 97 1013.5
20260509130048 68 294 0.9 5.2 0.00 0.00 0.00 98 1013.2
20260509124546 68 290 0.9 3.5 0.00 0.00 0.00 98 1013.3
20260509123045 68 0 0.0 0.0 0.00 0.00 0.00 98 1013.3
20260509121550 68 281 0.0 2.6 0.00 0.00 0.00 97 1013.3
20260509120053 68 0 0.0 5.2 0.00 0.00 0.00 98 1013.4
20260509114547 68 304 1.7 8.7 0.00 0.00 0.00 98 1013.3
20260509113046 68 229 2.6 8.7 0.00 0.00 0.00 98 1013.2
20260509111549 68 295 2.6 7.8 0.00 0.00 0.00 98 1013.5
20260509110046 68 0 0.0 0.0 0.00 0.00 0.00 98 1012.8
20260509104544 68 0 0.0 2.6 0.00 0.00 0.00 98 1012.3
20260509103042 68 325 0.9 2.6 0.00 0.00 0.00 98 1012.2
20260509101554 67 0 0.0 2.6 0.00 0.00 0.00 98 1012.2
20260509100048 67 0 0.0 0.0 0.00 0.00 0.00 98 1012.0
20260509094546 67 0 0.0 0.0 0.00 0.00 0.00 98 1011.8
20260509093053 67 0 0.0 0.0 0.00 0.00 0.00 97 1011.6
20260509091549 67 0 0.0 0.0 0.00 0.00 0.00 97 1011.4
20260509090050 67 0 0.0 0.0 0.00 0.00 0.00 97 1011.2
20260509084554 67 0 0.0 0.0 0.00 0.00 0.00 97 1011.6
20260509083045 68 0 0.0 3.5 0.00 0.00 0.00 97 1011.9
20260509081545 68 0 0.0 0.0 0.00 0.00 0.00 97 1012.2
20260509080052 68 0 0.0 0.0 0.00 0.00 0.00 97 1012.2
20260509074542 68 0 0.0 0.0 0.00 0.00 0.00 97 1012.1
20260509073048 67 0 0.0 0.0 0.00 0.00 0.00 97 1012.1
20260509071547 67 0 0.0 0.0 0.00 0.00 0.00 97 1011.9
20260509070046 67 0 0.0 0.0 0.00 0.00 0.00 97 1012.2
20260509064545 67 0 0.0 0.0 0.00 0.00 0.00 97 1011.9
20260509063048 67 0 0.0 0.0 0.00 0.00 0.00 97 1012.1
20260509061549 66 0 0.0 0.0 0.00 0.00 0.00 97 1012.2